STARLINK-34699, 64921

Orbit data source: Space-Track

STARLINK-34699, 64921 is a payload satellite owned by SpaceX/Seattle (US) in LEO that was launched on Sat, 26 Jul 2025 UTC via an FALCON 9 launch vehicle from the Air Force Eastern Test Range (AFETR). Payload-class satellites include a variety of spacecraft equipped with specific instruments for various scientific and technological missions. These include communications satellites like Starlink; space stations such as the ISS; scientific satellites like the Hubble; Earth observation satellites from companies like Planet Labs, Umbra, and HawkEye 360; GPS; miniature CubeSats for education and research; and military/defense satellites.

Loading next visibility...
Identifier
64921, 2025-157T
Orbit
LEO
Country
Flag of USUS
Related business
Manufacturer
SpaceX/Seattle
Mission
Operational Commercial Communications
Bus & Motor
STARLINK V2MO, Unknown motor
Mass
575 kg wet, ~530 kg dry
Launch date (UTC)
2025-07-26 (4 months ago)
Launch vehicle
FALCON 9
Launch site
Air Force Eastern Test Range (AFETR)
Object type
Payload
Rocket body
Debris
Shape & HBR
Box + 2 Pan, 17.7 m
Radar Cross Section
36.964 m², Large (>1 m²)

Expand to show TLE details & history
Last TLE update: 2 days ago

TLE from 2 days ago
0 STARLINK-34699
1 64921U 25157T   25312.70834933  .00113972  00000-0  28144-2 0  9996
2 64921  53.1571 193.8241 0001248  91.9425 268.1722 15.39647271 17516
Epoch: 2025-11-08T17:00Z
TLE epoch observation values (Epoch: 2025-11-08T17:00:01.382Z)
Latitude
-0.00007°
Longitude
-109.31579°
Altitude
448.082 km
Speed
7.645 km/s
True Right ascension
12h 55m 17s
True Declination
0° 00' 00"
Sunlit
Object was in daylight at epoch
Visualization orbit readout
Latitude
Unknown
Longitude
Unknown
Altitude
Unknown
Speed
Unknown
Apparent Right ascension
Unknown
Apparent Declination
Unknown
Sunlit
N/A
Visualization observer readout
Local Sidereal Time
03:55:33
Azimuth
Unknown
Elevation
Unknown
Doppler factor
Unknown
Orbital elements
Apogee altitude
448.261 km
Perigee altitude
446.558 km
Semi-major axis
6,825.546 km
Eccentricity
0.00012
Inclination
53.1571°
RAAN
193.8241°
Arg. of periapsis
91.9425°
True anomaly
268.15791°
Mean anomaly
268.1722°
Eccentric anomaly
268.16505°
Mean motion
3.8489 °/min
Orbital period
93.53 mins
BSTAR
0.0028144
Loading maneuver chart data...
Computing Atmospheric mass density...
Loading historical data...
Loading historical data...
Loading historical data...
Loading historical data...
Loading historical data...
Loading historical data...
Loading historical data...

Documentation

Showing up to 5 results
|